Location: Azul
(36.7830°S, 59.8500°W)
Time: 20:42:49
(UTC-03:00)

RS-44 - Pass Details

Date: 23 September 2024
Orbit: 1174 x 1511 km, 82.5° (Epoch: 11 October)

Event Time Altitude Azimuth Distance (km) Brightness Sun altitude
Rises 02:06:05 0° 182° (S) 4,466 ? -49.1°
Reaches altitude 10° 02:09:02 10° 175° (S) 3,530 ? -48.8°
Enters shadow 02:14:15 36° 147° (SSE) 2,164 ? -48.3°
